EN

Hourly Weather Canada

Today, 16 April, Friday

Time Temperature Precipitation Wind Pressure Humidity
00:00 +19°C° 0 mm 1 mps 626 mmHg 41%
01:00 +18°C° 0 mm 1 mps 626 mmHg 42%
02:00 +18°C° 0 mm 1 mps 625 mmHg 44%
03:00 +18°C° 0 mm 1 mps 625 mmHg 44%
04:00 +16°C° 0 mm 1 mps 625 mmHg 45%
05:00 +15°C° 0 mm 0 mps 625 mmHg 46%
06:00 +18°C° 0 mm 0 mps 627 mmHg 39%
07:00 +21°C° 0 mm 0 mps 628 mmHg 33%
08:00 +25°C° 0 mm 0 mps 629 mmHg 27%
09:00 +29°C° 0 mm 1 mps 629 mmHg 23%
10:00 +31°C° 0 mm 1 mps 629 mmHg 20%
11:00 +34°C° 0 mm 2 mps 629 mmHg 16%
12:00 +34°C° 0 mm 2 mps 628 mmHg 15%
13:00 +35°C° 0 mm 3 mps 627 mmHg 14%
14:00 +35°C° 0 mm 4 mps 627 mmHg 13%
15:00 +34°C° 0 mm 4 mps 626 mmHg 13%
16:00 +33°C° 0 mm 4 mps 626 mmHg 13%
17:00 +32°C° 0 mm 5 mps 626 mmHg 14%
18:00 +28°C° 0 mm 4 mps 626 mmHg 19%
19:00 +25°C° 0 mm 3 mps 626 mmHg 24%
20:00 +21°C° 0 mm 2 mps 626 mmHg 29%
21:00 +20°C° 0 mm 2 mps 626 mmHg 32%
22:00 +19°C° 0 mm 2 mps 626 mmHg 36%
23:00 +17°C° 0 mm 2 mps 626 mmHg 40%

Tomorrow, 17 April, Saturday

Time Temperature Precipitation Wind Pressure Humidity
00:00 +17°C° 0 mm 2 mps 625 mmHg 40%
01:00 +18°C° 0 mm 1 mps 625 mmHg 40%
02:00 +16°C° 0 mm 1 mps 625 mmHg 41%
03:00 +16°C° 0 mm 1 mps 625 mmHg 41%
04:00 +16°C° 0 mm 1 mps 625 mmHg 40%
05:00 +15°C° 0 mm 1 mps 625 mmHg 40%
06:00 +20°C° 0 mm 1 mps 626 mmHg 33%
07:00 +23°C° 0 mm 1 mps 627 mmHg 26%
08:00 +26°C° 0 mm 1 mps 628 mmHg 19%
09:00 +28°C° 0 mm 2 mps 628 mmHg 16%
10:00 +30°C° 0 mm 2 mps 628 mmHg 14%
11:00 +33°C° 0 mm 3 mps 628 mmHg 11%
12:00 +34°C° 0 mm 4 mps 628 mmHg 10%
13:00 +34°C° 0 mm 4 mps 627 mmHg 10%
14:00 +34°C° 0 mm 5 mps 627 mmHg 9%
15:00 +33°C° 0 mm 5 mps 626 mmHg 10%
16:00 +32°C° 0 mm 5 mps 626 mmHg 10%
17:00 +30°C° 0 mm 5 mps 626 mmHg 10%
18:00 +27°C° 0 mm 4 mps 626 mmHg 14%
19:00 +22°C° 0 mm 3 mps 625 mmHg 18%
20:00 +19°C° 0 mm 2 mps 625 mmHg 23%
21:00 +18°C° 0 mm 2 mps 625 mmHg 25%
22:00 +17°C° 0 mm 2 mps 625 mmHg 27%
23:00 +16°C° 0 mm 1 mps 625 mmHg 30%

Day after tomorrow, 18 April, Sunday

Time Temperature Precipitation Wind Pressure Humidity
00:00 +16°C° 0 mm 1 mps 625 mmHg 33%
01:00 +15°C° 0 mm 1 mps 625 mmHg 37%
02:00 +14°C° 0 mm 1 mps 624 mmHg 41%
03:00 +14°C° 0 mm 1 mps 624 mmHg 42%
04:00 +14°C° 0 mm 1 mps 625 mmHg 44%
05:00 +13°C° 0 mm 1 mps 625 mmHg 46%
06:00 +18°C° 0 mm 1 mps 626 mmHg 38%
07:00 +21°C° 0 mm 1 mps 627 mmHg 30%
08:00 +25°C° 0 mm 1 mps 628 mmHg 22%
09:00 +27°C° 0 mm 2 mps 628 mmHg 17%
10:00 +29°C° 0 mm 3 mps 628 mmHg 12%
11:00 +31°C° 0 mm 3 mps 628 mmHg 8%
12:00 +32°C° 0 mm 4 mps 628 mmHg 8%
13:00 +32°C° 0 mm 4 mps 627 mmHg 7%
14:00 +33°C° 0 mm 4 mps 627 mmHg 7%
15:00 +32°C° 0 mm 5 mps 626 mmHg 8%
16:00 +30°C° 0 mm 5 mps 626 mmHg 9%
17:00 +29°C° 0 mm 5 mps 626 mmHg 9%
18:00 +26°C° 0 mm 4 mps 626 mmHg 15%
19:00 +22°C° 0 mm 3 mps 626 mmHg 20%
20:00 +19°C° 0 mm 3 mps 625 mmHg 26%
21:00 +18°C° 0 mm 2 mps 626 mmHg 28%
22:00 +17°C° 0 mm 2 mps 626 mmHg 31%
23:00 +15°C° 0 mm 2 mps 626 mmHg 33%

19 April, Monday

Time Temperature Precipitation Wind Pressure Humidity
00:00 +15°C° 0 mm 1 mps 625 mmHg 35%
01:00 +15°C° 0 mm 1 mps 625 mmHg 36%
02:00 +14°C° 0 mm 1 mps 625 mmHg 38%
03:00 +14°C° 0 mm 1 mps 625 mmHg 40%
04:00 +13°C° 0 mm 1 mps 625 mmHg 41%
05:00 +13°C° 0 mm 1 mps 625 mmHg 43%
06:00 +16°C° 0 mm 1 mps 626 mmHg 35%
07:00 +21°C° 0 mm 1 mps 627 mmHg 27%
08:00 +22°C° 0 mm 0 mps 628 mmHg 20%
09:00 +26°C° 0 mm 1 mps 628 mmHg 16%
10:00 +28°C° 0 mm 2 mps 628 mmHg 12%
11:00 +30°C° 0 mm 3 mps 628 mmHg 8%
12:00 +31°C° 0 mm 3 mps 628 mmHg 8%
13:00 +32°C° 0 mm 4 mps 627 mmHg 8%
14:00 +32°C° 0 mm 4 mps 627 mmHg 8%
15:00 +30°C° 0 mm 5 mps 627 mmHg 9%
16:00 +29°C° 0 mm 5 mps 626 mmHg 9%
17:00 +28°C° 0 mm 5 mps 626 mmHg 10%
18:00 +25°C° 0 mm 4 mps 626 mmHg 15%
19:00 +22°C° 0 mm 4 mps 626 mmHg 19%
20:00 +19°C° 0 mm 3 mps 626 mmHg 24%
21:00 +18°C° 0 mm 2 mps 626 mmHg 25%
22:00 +18°C° 0 mm 2 mps 626 mmHg 27%
23:00 +18°C° 0 mm 1 mps 626 mmHg 29%

20 April, Tuesday

Time Temperature Precipitation Wind Pressure Humidity
00:00 +16°C° 0 mm 1 mps 626 mmHg 32%
01:00 +15°C° 0 mm 1 mps 626 mmHg 35%
02:00 +15°C° 0 mm 1 mps 625 mmHg 37%
03:00 +14°C° 0 mm 1 mps 625 mmHg 39%
04:00 +13°C° 0 mm 1 mps 625 mmHg 41%
05:00 +13°C° 0 mm 1 mps 625 mmHg 42%
06:00 +18°C° 0 mm 1 mps 626 mmHg 35%
07:00 +19°C° 0 mm 0 mps 627 mmHg 27%
08:00 +23°C° 0 mm 0 mps 628 mmHg 19%
09:00 +27°C° 0 mm 1 mps 629 mmHg 16%
10:00 +29°C° 0 mm 2 mps 629 mmHg 12%
11:00 +32°C° 0 mm 2 mps 629 mmHg 9%
12:00 +33°C° 0 mm 3 mps 629 mmHg 8%
13:00 +33°C° 0 mm 4 mps 628 mmHg 8%
14:00 +33°C° 0 mm 4 mps 628 mmHg 8%
15:00 +32°C° 0 mm 4 mps 627 mmHg 8%
16:00 +30°C° 0 mm 4 mps 627 mmHg 9%
17:00 +29°C° 0 mm 5 mps 627 mmHg 9%
18:00 +26°C° 0 mm 4 mps 627 mmHg 13%
19:00 +22°C° 0 mm 3 mps 627 mmHg 17%
20:00 +19°C° 0 mm 3 mps 626 mmHg 21%
21:00 +18°C° 0 mm 2 mps 627 mmHg 23%
22:00 +17°C° 0 mm 2 mps 627 mmHg 25%
23:00 +16°C° 0 mm 1 mps 627 mmHg 27%

21 April, Wednesday

Time Temperature Precipitation Wind Pressure Humidity
00:00 +15°C° 0 mm 1 mps 627 mmHg 29%
01:00 +15°C° 0 mm 1 mps 626 mmHg 31%
02:00 +14°C° 0 mm 1 mps 626 mmHg 34%
03:00 +14°C° 0 mm 1 mps 626 mmHg 34%
04:00 +14°C° 0 mm 1 mps 626 mmHg 35%
05:00 +13°C° 0 mm 1 mps 626 mmHg 36%
06:00 +18°C° 0 mm 1 mps 627 mmHg 30%
07:00 +21°C° 0 mm 1 mps 628 mmHg 23%
08:00 +25°C° 0 mm 1 mps 629 mmHg 17%
09:00 +27°C° 0 mm 1 mps 630 mmHg 14%
10:00 +30°C° 0 mm 1 mps 630 mmHg 11%
11:00 +32°C° 0 mm 2 mps 630 mmHg 8%
12:00 +34°C° 0 mm 3 mps 630 mmHg 7%
13:00 +34°C° 0 mm 4 mps 629 mmHg 7%
14:00 +34°C° 0 mm 5 mps 628 mmHg 6%
15:00 +33°C° 0 mm 4 mps 628 mmHg 6%
16:00 +32°C° 0 mm 4 mps 628 mmHg 7%
17:00 +30°C° 0 mm 4 mps 627 mmHg 7%
18:00 +27°C° 0 mm 4 mps 627 mmHg 11%
19:00 +22°C° 0 mm 3 mps 627 mmHg 14%
20:00 +19°C° 0 mm 3 mps 627 mmHg 17%
21:00 +18°C° 0 mm 2 mps 627 mmHg 19%
22:00 +17°C° 0 mm 2 mps 627 mmHg 21%
23:00 +16°C° 0 mm 1 mps 627 mmHg 23%
Show more

We Need Your Consent

Meteoprog and our Service Providers may store and access personal data such as cookies, device identifiers or other similar technologies on your device and process such data to personalise content and ads, as well as provide social media features and to analyse the traffic.

  • Store and/or access information on your device

    Cookies, device identifiers or other information can be stored or accessed on your device for the purposes indicated above.

  • Personalised ads and content, ad and content measurement, audience insights, and products development

    Ads and content can be personalised based on a profile. More data can be added to better personalise ads and content. Ad and content performance can be measured. Insights about the audience who saw the ads and content can be derived. Such data can be used to develop or improve user’s experience, systems and software.

By clicking ‘I Agree’ you will allow the use of indicated cookies, device identifiers, web beacons or other similar technologies. Your settings can be changed in the browser on your device.

For certain purposes, legitimate interests may be relied on, rather than consent. You can read more about this in our Privacy and Cookie Policy.